Location: Chagrin Falls Park
(41.4139°N, 81.3865°W)
Time: 03:58:38
(UTC+00:00)

STARLINK-2688 - Pass Details

Date: 31 July 2021
Orbit: 546 x 548 km, 53.1° (Epoch: 21 September)

Event Time Altitude Azimuth Distance (km) Brightness Sun altitude
Rises 01:01:16 0° 310° (NW) 2,722 9.3 -3.6°
Reaches altitude 10° 01:03:34 10° 316° (NW) 1,826 7.8 -4.0°
Maximum altitude 01:07:36 48° 32° (NNE) 723 4.2 -4.7°
Drops below altitude 10° 01:11:36 10° 107° (ESE) 1,817 5.6 -5.3°
Enters shadow 01:12:22 - 110° (ESE) 2,111 5.9 -5.4°
